Location: Young's Pond
(41.2695°N, 72.7766°W)
Time: 17:29:03
(UTC-04:00)

CZ-4B R/B - Visible Passes

Search period start: 02 July 2015 00:00
Search period end: 12 July 2015 00:00
Orbit: 417 x 523 km, 97.5° (Epoch: 02 July)

Date Brightness Start Highest point End Pass type
(mag) Time Alt. Az. Time Alt. Az. Time Alt. Az.
02 Jul 3.7 00:27:01 19° WNW 00:27:01 19° WNW 00:28:34 10° NW visible
02 Jul 2.6 23:57:55 39° NW 23:57:55 39° NW 00:00:14 10° NNW visible
03 Jul 2.4 23:28:49 39° NE 23:28:49 39° NE 23:31:22 10° N visible
04 Jul 3.3 22:59:42 19° ENE 22:59:42 19° ENE 23:01:59 10° NNE visible
05 Jul 3.9 00:33:45 17° WNW 00:33:45 17° WNW 00:35:05 10° NW visible
06 Jul 2.9 00:04:38 34° NW 00:04:38 34° NW 00:06:52 10° NNW visible
06 Jul 2.4 23:35:31 43° NNE 23:35:31 43° NNE 23:38:06 10° N visible
07 Jul 3.1 23:06:23 23° ENE 23:06:23 23° ENE 23:08:50 10° NNE visible
08 Jul 4.1 00:40:27 14° WNW 00:40:27 14° WNW 00:41:29 10° NW visible
08 Jul 4.0 22:37:16 11° ENE 22:37:23 11° ENE 22:38:28 10° NE visible
09 Jul 3.2 00:11:19 30° NW 00:11:19 30° NW 00:13:26 10° NNW visible
09 Jul 2.4 23:42:11 45° N 23:42:11 45° N 23:44:45 10° N visible
10 Jul 3.0 23:13:03 27° NE 23:13:03 27° NE 23:15:36 10° N visible
11 Jul 4.3 00:47:06 12° WNW 00:47:06 12° WNW 00:47:46 10° WNW visible
11 Jul 3.8 22:43:54 13° ENE 22:43:54 13° ENE 22:45:41 10° NE visible
